Regional Weather Roundup
Issued by NWS Memphis, TN

Home | Current Version | Previous Version | Text Only | Print | Product List | Glossary On
Versions: 1 2 3 4 5 6 7 8 9 10 11 12 13 14 15 16 17 18 19 20 21 22 23 24 25 26 27 28 29 30 31 32 33 34 35 36 37 38 39 40 41 42 43 44 45 46 47 48 49 50
000
ASUS44 KMEG 012000
RWRMEG
MEMPHIS CWA HOURLY WEATHER ROUNDUP
NATIONAL WEATHER SERVICE MEMPHIS TN
300 PM CDT FRI JUL 01 2022

...WEST TENNESSEE...

CITY           SKY/WX    TMP DP  RH WIND       PRES   REMARKS
MEMPHIS INTL   PTSUNNY   94  69  44 S9        30.00F HX  99
NWS MEMPHIS      N/A     92 N/A N/A MISG        N/A
JACKSON        PTSUNNY   90  70  51 S6        30.01F HX  95
COVINGTON      PTSUNNY   90  70  51 W6        29.99F HX  95
SOMERVILLE     MOSUNNY   91  68  46 S7G17     30.00S HX  95
BOLIVAR        MOSUNNY   91  70  49 VRB5      30.00F HX  97
LEXINGTON      SUNNY     93  66  40 VRB3      30.00F HX  96
SELMER         SUNNY     91  68  46 VRB5G12   30.01F HX  95
SAVANNAH       MOSUNNY   93  70  46 VRB3      30.00F HX  99
DYERSBURG      MOSUNNY   91  71  51 S6        30.01F HX  97
UNION CITY     SUNNY     93  70  46 VRB7      29.98F HX  99
PARIS          MOSUNNY   90  68  48 CALM      30.01F HX  93
HUNTINGDON     MOSUNNY   93  70  46 S8        30.00F HX  99


...EASTERN ARKANSAS...

CITY           SKY/WX    TMP DP  RH WIND       PRES   REMARKS
JONESBORO      SUNNY     91  70  49 S10       29.99F HX  96
WEST MEMPHIS   SUNNY     91  69  48 VRB6G18   29.98F HX  96
BATESVILLE     MOSUNNY   94  71  47 SE9       29.98F HX 101
NEWPORT          N/A     93  71  48 S9        29.98F HX 100
WALNUT RIDGE   MOSUNNY   93  74  53 S9        29.98F HX 103
BLYTHEVILLE    MOSUNNY   90  70  51 SW5       29.99F HX  95
SEARCY         MOSUNNY   92  74  55 SE9       29.99F HX 101
STUTTGART      MOSUNNY   90  71  53 SW8       30.00F HX  96
PINE BLUFF     MOSUNNY   90  74  59 SE5       30.00F HX  99
MONTICELLO     MOSUNNY   91  72  53 E6        29.99F HX  98


...NORTH MISSISSIPPI...

CITY           SKY/WX    TMP DP  RH WIND       PRES   REMARKS
TUPELO         CLOUDY    89  70  53 VRB5      30.02F HX  94
OXFORD         MOSUNNY   86  72  62 SW9       30.04S HX  92
OLIVE BRANCH   PTSUNNY   91  73  55 SW9       30.00F HX 100
TUNICA         SUNNY     91  71  53 S8        30.00S HX  97
CLARKSDALE     CLOUDY    88  75  66 CALM      30.01S HX  97
CORINTH        PTSUNNY   91  68  46 SE9       30.01F HX  95
IUKA           FAIR      91  70  50 S9        30.03F HX  96
GREENWOOD      MOSUNNY   92  72  51 CALM      29.99F HX  99
COLUMBUS       MOSUNNY   90  70  50 S10       29.98F HX  95
STARKVILLE     MOSUNNY   88  68  51 VRB5G14   30.00F HX  91
GOLDEN TRIANGL MOSUNNY   90  72  55 SE10      30.02F HX  97


...SOUTHEAST MISSOURI...

CITY           SKY/WX    TMP DP  RH WIND       PRES   REMARKS
KENNETT        PTSUNNY   91  73  55 S9        29.98S HX 100
MALDEN         SUNNY     90  70  51 S8        29.99F HX  95
WEST PLAINS    MOSUNNY   93  64  38 VRB5      30.01F HX  94
POPLAR BLUFF   SUNNY     94  70  45 S6        29.97F HX 100
CAPE GIRARDEAU MOSUNNY   92  70  48 VRB5      29.97F HX  97


...NORTHWEST ALABAMA...

CITY           SKY/WX    TMP DP  RH WIND       PRES   REMARKS
MUSCLE SHOALS  MOSUNNY   93  67  42 VRB5      30.01F HX  96


...MIDDLE TENNESSEE...

CITY           SKY/WX    TMP DP  RH WIND       PRES   REMARKS
NASHVILLE      PTSUNNY   94  64  37 W7        30.02F HX  95
CLARKSVILLE    MOSUNNY   93  66  40 VRB3      30.00F HX  96
DICKSON        SUNNY     91  66  43 S7        30.02F HX  94
COLUMBIA       MOSUNNY   91  64  40 VRB5G14   30.01F HX  93
LAWRENCEBURG   MOSUNNY   91  68  46 W6        30.03F HX  95
LEWISBURG      MOSUNNY   91  66  43 VRB5G13   30.02F HX  94


...WESTERN KENTUCKY...

CITY           SKY/WX    TMP DP  RH WIND       PRES   REMARKS
PADUCAH        PTSUNNY   91  71  51 S5        29.98F HX  97


...CENTRAL ARKANSAS...

CITY           SKY/WX    TMP DP  RH WIND       PRES   REMARKS
LITTLE ROCK    PTSUNNY   93  71  48 S8        29.98F HX 100


SKY/WX REPORTED AS FAIR MEANS FEW OR NO CLOUDS BELOW
12 THOUSAND FEET.




USA.gov is the U.S. government's official web portal to all federal, state and local government web resources and services.